www.pogodaiklimat.ru

Погода и климат >> Архив погоды >> Гренландия >> Aputiteq Ads


ПОГОДА в Aputiteq Ads

  • Прогноз погоды в Aputiteq Ads
  • Монитор погоды в Aputiteq Ads

АРХИВ ПОГОДЫ в Aputiteq Ads

Время (UTC), дата Ветер
(напр.,м/с)
 
Видим.   Явления Облачность Т
(С)
Тd
(С)
f
(%)
Тe
(С)
Тes
(С)
Комфортность P
(гПа)
Po
(гПа)
Тmin
(С)
Tmax
(С)
R
(мм)
R24
(мм)
S
(см)
01 12.08 З 1 н/о н/о +2.7 +2.0 95 +2 +2 1017.9 1016.2
02 12.08 СВ 2 н/о н/о +2.8 +1.5 91 -1 -1 1017.8 1016.1
03 12.08 З 1 н/о н/о +2.4 +1.7 95 +1 +1 1017.9 1016.2
04 12.08 З 1 н/о н/о +2.2 +1.8 97 0 0 1018.1 1016.4
05 12.08 С 1 н/о н/о +2.6 +1.9 95 +2 +2 1018.3 1016.6
06 12.08 З 1 н/о н/о +2.8 +1.8 93 +1 +1 1018.7 1017.0
07 12.08 СЗ 2 н/о н/о +3.8 +1.7 86 +1 +1 1018.9 1017.2
08 12.08 З 2 н/о н/о +2.8 +1.5 91 0 0 1018.9 1017.2
09 12.08 З 2 н/о н/о +3.2 +1.7 90 0 0 1019.0 1017.3
10 12.08 З 3 н/о н/о +4.1 +0.6 78 +1 +1 1019.1 1017.4
11 12.08 ЮЗ 1 н/о н/о +5.0 +1.3 77 +5 +5 1019.4 1017.7
12 12.08 В 3 н/о н/о +5.4 +1.8 78 +2 +2 1019.6 1017.9
13 12.08 В 5 н/о н/о +5.8 +0.7 70 +2 +2 1019.8 1018.1
14 12.08 ЮВ 1 н/о н/о +6.3 +2.2 75 +5 +5 1020.1 1018.4
15 12.08 В 2 н/о н/о +5.1 +2.6 84 +2 +2 1020.1 1018.4
16 12.08 ЮВ 2 н/о н/о +5.4 +2.5 82 +3 +3 1020.2 1018.5
17 12.08 В 1 н/о н/о +5.9 +1.8 75 +5 +5 1020.2 1018.5
18 12.08 СВ 7 н/о н/о +3.0 +2.1 94 -3 -3 1020.6 1018.9
19 12.08 СВ 8 н/о н/о +2.5 +2.2 98 -5 -5 1021.0 1019.3
20 12.08 СВ 7 н/о н/о +2.7 +2.4 98 -4 -4 1021.5 1019.8
21 12.08 СВ 8 н/о н/о +2.4 +2.0 97 -4 -4 1021.8 1020.1
22 12.08 СВ 7 н/о н/о +2.4 +2.0 97 -4 -4 1022.2 1020.5
23 12.08 СВ 6 н/о н/о +1.8 +1.4 97 -5 -5 1022.6 1020.9
00 13.08 СВ 4 н/о н/о +2.2 +1.5 95 -3 -3 1023.1 1021.4
01 13.08 СВ 2 н/о н/о +1.9 +1.5 97 -2 -2 1023.4 1021.7
02 13.08 СВ 2 н/о н/о +1.6 +1.4 99 -1 -1 1023.4 1021.7
03 13.08 С 2 н/о н/о +1.2 +1.2 100 -3 -3 1023.2 1021.5
04 13.08 СЗ 2 н/о н/о +0.9 +0.9 100 -2 -2 1022.9 1021.2
05 13.08 СЗ 2 н/о н/о +0.8 +0.8 100 -3 -3 1022.7 1021.0
06 13.08 С 1 н/о н/о +0.8 +0.8 100 -1 -1 1022.5 1020.8
07 13.08 СЗ 1 н/о н/о +0.2 +0.2 100 -2 -2 1022.3 1020.6
08 13.08 ЮЗ 1 н/о н/о +0.8 +0.5 98 0 0 1022.2 1020.5
09 13.08 СЗ 1 н/о н/о +1.5 +0.8 95 +1 +1 1022.2 1020.5
10 13.08 С 1 н/о н/о +3.1 +1.4 89 +1 +1 1022.0 1020.3
11 13.08 СЗ 1 н/о н/о +3.0 +1.2 88 +1 +1 1021.8 1020.1
12 13.08 СЗ 2 н/о н/о +3.3 +1.3 87 +1 +1 1021.5 1019.8
13 13.08 СЗ 2 н/о н/о +3.8 +1.7 86 +1 +1 1021.0 1019.3
14 13.08 З 2 н/о н/о +4.4 +0.2 74 +2 +2 1020.5 1018.8
15 13.08 Ю 2 н/о н/о +4.4 +2.1 85 +2 +2 1020.2 1018.5
16 13.08 В 3 н/о н/о +3.6 +2.2 91 -0 -0 1020.0 1018.3
17 13.08 В 4 н/о н/о +3.0 +2.1 94 -2 -2 1019.8 1018.1
18 13.08 СВ 3 н/о н/о +3.7 +2.2 90 0 0 1019.5 1017.8
19 13.08 СВ 4 н/о н/о +4.0 +2.8 92 -0 -0 1019.3 1017.6
20 13.08 СВ 2 н/о н/о +3.4 +3.1 98 +1 +1 1019.0 1017.3
21 13.08 СВ 3 н/о н/о +3.2 +2.9 98 -1 -1 1018.5 1016.8
22 13.08 В 4 н/о н/о +2.9 +2.7 99 -2 -2 1018.2 1016.5
23 13.08 СВ 4 н/о н/о +2.8 +2.5 98 -2 -2 1018.2 1016.5
00 14.08 СВ 3 н/о н/о +2.8 +2.4 97 -1 -1 1018.1 1016.4
01 14.08 СЗ 2 н/о н/о +2.8 +2.1 95 -1 -1 1017.8 1016.1
02 14.08 СВ 2 н/о н/о +2.3 +1.9 97 -1 -1 1017.4 1015.7
03 14.08 СЗ 1 н/о н/о +1.8 +1.6 99 +1 +1 1017.2 1015.5
04 14.08 З 2 н/о н/о +1.4 +1.4 100 -2 -2 1016.9 1015.2
05 14.08 СЗ 2 н/о н/о +1.0 +1.0 100 -3 -3 1016.4 1014.7
06 14.08 СЗ 2 н/о н/о +0.6 +0.6 100 -3 -3 1015.8 1014.1
07 14.08 СЗ 2 н/о н/о +0.8 +0.8 100 -3 -3 1015.6 1013.9
08 14.08 СЗ 2 н/о н/о +1.3 +1.0 98 -2 -2 1015.4 1013.7
09 14.08 З 1 н/о н/о +1.6 +1.0 96 -0 -0 1015.2 1013.5
10 14.08 Ю 1 н/о н/о +2.0 +1.3 95 0 0 1015.1 1013.4
11 14.08 З 2 н/о н/о +2.1 +1.2 94 -1 -1 1015.1 1013.4
12 14.08 З 3 н/о н/о +2.6 +1.4 92 -1 -1 1015.1 1013.4
13 14.08 З 3 н/о н/о +2.7 +1.1 89 -1 -1 1015.1 1013.4
14 14.08 З 3 н/о н/о +3.2 +1.1 86 -1 -1 1014.9 1013.2
15 14.08 ЮЗ 2 н/о н/о +3.2 +1.2 87 0 0 1014.6 1012.9
16 14.08 З 3 н/о н/о +3.1 +1.3 88 -1 -1 1014.4 1012.7
17 14.08 З 3 н/о н/о +3.2 +1.5 89 -1 -1 1014.2 1012.5
18 14.08 З 2 н/о н/о +3.7 +1.7 87 +1 +1 1014.1 1012.4
19 14.08 ЮЗ 3 н/о н/о +3.6 +1.8 88 0 0 1014.1 1012.4
20 14.08 З 3 н/о н/о +3.5 +2.1 91 -0 -0 1014.0 1012.3
21 14.08 З 3 н/о н/о +3.6 +1.9 89 0 0 1013.8 1012.1
22 14.08 З 3 н/о н/о +3.4 +2.4 93 -0 -0 1013.5 1011.8
23 14.08 З 2 н/о н/о +2.9 +1.6 91 0 0 1013.5 1011.8
00 15.08 СВ 1 н/о н/о +3.0 +1.5 90 +3 +3 1013.8 1012.1
01 15.08 В 1 н/о н/о +3.1 +2.1 93 +1 +1 1014.0 1012.3
02 15.08 В 3 н/о н/о +2.9 +2.3 96 -1 -1 1014.1 1012.4
03 15.08 В 2 н/о н/о +3.1 +2.4 95 0 0 1013.8 1012.1
04 15.08 СЗ 2 н/о н/о +3.0 +2.1 94 0 0 1013.5 1011.8
05 15.08 СЗ 2 н/о н/о +2.9 +2.2 95 -0 -0 1013.2 1011.5
06 15.08 СЗ 2 н/о н/о +2.8 +1.9 94 -1 -1 1012.8 1011.1
07 15.08 СЗ 3 н/о н/о +2.7 +0.9 88 -1 -1 1012.4 1010.7
08 15.08 З 3 н/о н/о +2.9 +1.3 89 -1 -1 1012.2 1010.5
09 15.08 З 2 н/о н/о +3.0 +1.2 88 -0 -0 1011.7 1010.0
10 15.08 СЗ 3 н/о н/о +3.2 +1.2 87 -1 -1 1011.3 1009.6
11 15.08 Ю 1 н/о н/о +3.2 +1.4 88 +2 +2 1011.2 1009.5
12 15.08 З 3 н/о н/о +3.4 +1.4 87 -0 -0 1010.8 1009.1
13 15.08 ЮВ 2 н/о н/о +4.2 +2.0 86 +1 +1 1011.1 1009.4
14 15.08 Ю 1 н/о н/о +4.7 +2.5 86 +3 +3 1011.1 1009.4
15 15.08 СЗ 3 н/о н/о +4.6 +2.3 85 +1 +1 1010.7 1009.0
16 15.08 СЗ 3 н/о н/о +4.8 +0.7 75 +2 +2 1010.3 1008.6
17 15.08 З 2 н/о н/о +5.2 +1.8 79 +3 +3 1010.1 1008.4
18 15.08 З 3 н/о н/о +4.7 +1.7 81 +2 +2 1009.9 1008.2
19 15.08 Ю 1 н/о н/о +5.3 -0.1 68 +6 +6 1009.7 1008.0
20 15.08 СВ 3 н/о н/о +5.8 +1.5 74 +3 +3 1009.7 1008.0
21 15.08 СВ 3 н/о н/о +5.9 +1.4 73 +3 +3 1009.8 1008.1
22 15.08 СВ 4 н/о н/о +5.1 +1.7 79 +1 +1 1009.9 1008.2
23 15.08 СВ 3 н/о н/о +5.5 +0.8 72 +2 +2 1010.1 1008.4
00 16.08 СЗ 1 н/о н/о +6.1 +0.4 67 +5 +5 1010.3 1008.6
01 16.08 СЗ 2 н/о н/о +5.4 +0.3 70 +3 +3 1010.4 1008.7
02 16.08 СЗ 3 н/о н/о +5.3 -0.6 66 +2 +2 1010.4 1008.7
03 16.08 СЗ 4 н/о н/о +5.2 -0.2 68 +1 +1 1010.3 1008.6
04 16.08 СЗ 3 н/о н/о +4.9 -0.5 68 +2 +2 1010.2 1008.5
05 16.08 СЗ 3 н/о н/о +4.2 +0.3 76 +1 +1 1010.0 1008.3
06 16.08 В 1 н/о н/о +5.4 -0.9 64 +5 +5 1010.0 1008.3
07 16.08 СЗ 3 н/о н/о +5.2 -1.1 64 +2 +2 1010.2 1008.5
08 16.08 СЗ 4 н/о н/о +4.8 -0.4 69 +1 +1 1010.5 1008.8
09 16.08 С 2 н/о н/о +6.2 -0.1 64 +5 +5 1011.0 1009.3
10 16.08 Ю 1 н/о н/о +4.8 +0.5 74 +5 +5 1011.3 1009.6
11 16.08 З 1 н/о н/о +5.4 +0.3 70 +6 +6 1011.6 1009.9
12 16.08 В 2 н/о н/о +7.3 -1.2 55 +6 +6 1011.9 1010.2
13 16.08 СВ 6 н/о н/о +6.0 +1.3 72 +1 +1 1012.3 1010.6
14 16.08 СВ 7 н/о н/о +7.7 +0.6 61 +4 +4 1012.7 1011.0
15 16.08 н/о н/о +7.1 +0.1 61 1012.9 1011.2
16 16.08 СЗ 4 н/о н/о +7.6 -1.4 53 +5 +5 1012.7 1011.0
17 16.08 СЗ 4 н/о н/о +7.2 -0.8 57 +4 +4 1012.4 1010.7
18 16.08 СЗ 4 н/о н/о +6.4 +0.1 64 +3 +3 1012.3 1010.6
19 16.08 СЗ 4 н/о н/о +7.1 -0.6 58 +4 +4 1012.1 1010.4
20 16.08 Ю 1 н/о н/о +5.6 +1.9 77 +5 +5 1012.4 1010.7
21 16.08 ЮЗ 1 н/о н/о +5.6 +1.3 74 +5 +5 1012.4 1010.7
22 16.08 З 3 н/о н/о +4.9 +2.4 84 +2 +2 1012.4 1010.7
23 16.08 СЗ 4 н/о н/о +6.1 -0.7 62 +3 +3 1012.3 1010.6
00 17.08 СЗ 2 н/о н/о +7.2 -1.3 55 +6 +6 1012.4 1010.7
01 17.08 СЗ 2 н/о н/о +4.2 -0.2 73 +2 +2 1012.2 1010.5
02 17.08 СЗ 4 н/о н/о +4.8 -0.8 67 +1 +1 1011.9 1010.2
03 17.08 СЗ 3 н/о н/о +4.4 -1.0 68 +1 +1 1011.5 1009.8
04 17.08 СЗ 2 н/о н/о +4.0 -0.2 74 +2 +2 1011.1 1009.4
05 17.08 СЗ 4 н/о н/о +4.6 -1.2 66 +1 +1 1010.7 1009.0
06 17.08 СЗ 4 н/о н/о +4.1 -1.1 69 0 0 1010.7 1009.0
07 17.08 СЗ 3 н/о н/о +4.8 -1.2 65 +2 +2 1010.6 1008.9
08 17.08 З 3 н/о н/о +3.8 +0.1 77 +1 +1 1010.6 1008.9
09 17.08 З 3 н/о н/о +3.6 +0.5 80 0 0 1010.6 1008.9
10 17.08 З 4 н/о н/о +3.9 +0.2 77 -0 -0 1010.5 1008.8
11 17.08 З 3 н/о н/о +3.9 +1.4 84 +1 +1 1010.4 1008.7
12 17.08 З 3 н/о н/о +4.4 +0.5 76 +1 +1 1010.6 1008.9
13 17.08 З 2 н/о н/о +4.6 +0.3 74 +2 +2 1010.6 1008.9
14 17.08 З 3 н/о н/о +4.9 +1.0 76 +2 +2 1010.5 1008.8
15 17.08 ЮЗ 3 н/о н/о +4.5 +1.8 83 +1 +1 1010.5 1008.8
16 17.08 З 3 н/о н/о +4.6 +1.2 79 +1 +1 1010.5 1008.8
17 17.08 З 3 н/о н/о +5.1 +2.1 81 +2 +2 1010.4 1008.7
18 17.08 З 3 н/о н/о +5.2 +1.3 76 +2 +2 1010.5 1008.8
19 17.08 В 1 н/о н/о +6.1 +0.8 69 +5 +5 1010.6 1008.9
20 17.08 В 5 н/о н/о +4.8 +2.0 82 0 0 1011.0 1009.3
21 17.08 СВ 6 н/о н/о +4.6 +2.3 85 -1 -1 1011.1 1009.4
22 17.08 СВ 3 н/о н/о +4.4 +2.1 85 +1 +1 1011.5 1009.8
23 17.08 СВ 4 н/о н/о +4.4 +2.2 86 0 0 1011.8 1010.1
00 18.08 СВ 5 н/о н/о +3.9 +3.3 96 -1 -1 1011.8 1010.1
01 18.08 СВ 5 н/о н/о +4.0 +3.1 94 -1 -1 1011.9 1010.2
02 18.08 СВ 5 н/о н/о +2.7 +2.5 99 -3 -3 1011.9 1010.2
03 18.08 СВ 4 н/о н/о +2.7 +2.5 99 -2 -2 1011.7 1010.0
04 18.08 С 3 н/о н/о +3.4 +1.4 87 -0 -0 1011.3 1009.6
05 18.08 З 1 н/о н/о +2.8 +2.1 95 +2 +2 1011.2 1009.5
06 18.08 СЗ 1 н/о н/о +2.7 +1.8 94 +1 +1 1011.0 1009.3
07 18.08 СЗ 2 н/о н/о +3.0 +1.3 89 -0 -0 1010.9 1009.2
08 18.08 З 2 н/о н/о +2.8 +1.6 92 0 0 1010.9 1009.2
09 18.08 СЗ 3 н/о н/о +3.0 +0.9 86 -1 -1 1010.8 1009.1
10 18.08 З 2 н/о н/о +3.2 +0.9 85 0 0 1010.6 1008.9
11 18.08 ЮЗ 2 н/о н/о +3.8 +1.8 87 +1 +1 1010.5 1008.8
12 18.08 З 2 н/о н/о +4.4 +0.3 75 +2 +2 1010.5 1008.8
13 18.08 З 2 н/о н/о +4.1 +1.6 84 +1 +1 1010.5 1008.8
14 18.08 З 2 н/о н/о +4.3 +2.1 86 +1 +1 1010.6 1008.9
15 18.08 З 2 н/о н/о +4.4 +2.7 89 +2 +2 1010.7 1009.0
16 18.08 З 3 н/о н/о +4.3 +2.9 91 +1 +1 1010.6 1008.9
17 18.08 З 3 н/о н/о +4.1 +2.1 87 0 0 1010.3 1008.6
18 18.08 З 2 н/о н/о +4.4 +1.2 80 +2 +2 1010.3 1008.6
19 18.08 ЮЗ 2 н/о н/о +4.4 +2.2 86 +2 +2 1010.5 1008.8
20 18.08 ЮЗ 3 н/о н/о +4.5 +3.0 90 +1 +1 1010.6 1008.9
21 18.08 З 2 н/о н/о +4.4 +2.9 90 +2 +2 1010.7 1009.0
22 18.08 ЮЗ 2 н/о н/о +3.2 +2.6 96 +1 +1 1011.0 1009.3
23 18.08 СВ 2 н/о н/о +2.9 +2.9 100 0 0 1011.2 1009.5

 

Местоположение метеостанции Aputiteq Ads (Гренландия): широта 67.78 долгота -32.29 высота над уровнем моря 12 м.

В архиве по умолчанию представлена погода в Aputiteq Ads за последнюю неделю. Архивные данные за месяц целиком и за предыдущие месяцы, начиная с января 2011 года, Вы можете получить, выбрав интересующий диапазон дат из раскрывающегося списка и нажав кнопку "Ввод!".


*Определитесь, кто Вы:
робот инопланетянин человек

Внимание! Время в таблицах - всемирное. Для получения местного времени необходимо прибавить поправку, которая равна -3 ч.

Смотрите также архив погоды в соседних городах и на ближайших метеорологических станциях:

Погода в Kulusuk (Гренландия) (325 км)
Погода в Tasiilaq (Гренландия) (337 км)
Погода в Болюнгарвик Шелфви (Исландия) (432 км)
Погода в Болунгарвике (Исландия) (433 км)
Погода на Хорнбьяргсвити (Исландия) (454 км)
Погода в Ikermiit (Гренландия) (489 км)
Погода в Constable Pynt (Гренландия) (502 км)
Погода в Ittoqqortoormiit (Гренландия) (507 км)
Погода в Стиккисхоульмюре (Исландия) (520 км)
Погода в Блёндюоусе (Исландия) (577 км)

Пояснения к столбцам:

Ветер - указаны скорость ветра в м/с - средняя за 10 мин, порывы в срок и между сроками (в фигурных скобках) и направление, откуда дует ветер: С - северный, СВ - северо-восточный, В - восточный, ЮВ - юго-восточный, Ю - южный, ЮЗ - юго-западный, З - западный, СЗ - северо-западный.
Видимость - горизонтальная дальность видимости в метрах или километрах. При видимости от 1 до 10 км при отсутствии осадков обычно наблюдается дымка, при ухудшении видимости до 1 км и менее - туман. В сухую погоду видимость может ухудшаться дымом, пылью или мглою.
Явления - указаны атмосферные явления, наблюдавшиеся в срок или в последний час перед сроком; фигурными скобками обозначены явления, наблюдавшиеся между сроками (за 1-3 часа до срока); квадратными скобками обозначены град или гололедные отложения с указанием их диаметра в мм.
Облачность - указаны через наклонную черту общая и нижняя облачность в баллах и высота нижней границы облаков в метрах; квадратными скобками обозначены формы облаков: Ci - перистые, Cs - перисто-слоистые, Cc - перисто-кучевые, Ac - высококучевые, As - высокослоистые, Sc - слоисто-кучевые, Ns - слоисто-дождевые, Cu - кучевые, Cb - кучево-дождевые. Подробнее классификацию облаков см. в Атласе облаков (PDF).
T - Температура воздуха - температура, измеренная на высоте 2 м над землей.
Td - Температура точки росы - температура, при понижении до которой содержащийся в воздухе водяной пар достигнет насыщения.
f - Относительная влажность воздуха - влажноcть воздуха, измеренная на высоте 2 м над землей.
Te - Эффективная температура - температура, которую ощущает одетый по сезону человек в тени. Характеристика душности погоды. При расчете учитывается влияние влажности воздуха и скорости ветра на теплоощущения человека.
Tes - Эффективная температура на солнце - температура, которую ощущает человек, с поправкой на солнечный нагрев. Характеристика знойности погоды. Зависит от высоты солнца над горизонтом, облачности и скорости ветра. Ночью, в пасмурную погоду, а также при ветре 12 м/с и более поправка равна нулю.
P - Атмосферное давление - приведенное к уровню моря атмосферное давление.
Po - Атмосферное давление - измеренное на уровне метеостанции атмосферное давление.
Tmin - Минимальная температура - минимум температуры воздуха на высоте 2 м над землей.
Tmax - Максимальная температура - максимум температуры воздуха на высоте 2 м над землей.
R - Количество осадков - Количество выпавших осадков за период времени, мм. При наведении курсора мыши на число - период времени, за который выпало указанное количество осадков.
R24 - Количество осадков - Количество выпавших осадков за 24 часа, мм.
S - Снежный покров - Высота снежного покрова, см. При наведении курсора мыши на число - состояние снежного покрова и степень покрытия местности в баллах.